sat.trackr.live / text

‹ back to catalog

STARLINK-3988

NORAD 52625 · 2022-052AD

PAYLOAD ACTIVE UNKNOWN

§ Identity

Operator
Country
US
Launch date
2022-05-14
Launch site
AFETR
Launch vehicle
Mass (kg)
RCS (m²)

Purposes: comms

External: N2YO · Heavens-Above · Gunter

§ Orbital elements

Epoch: 2026-05-25T02:26:05.578080Z

Period
95.44 min
Inclination
53.2121°
Eccentricity
0.0001053
Mean motion
15.08823822 rev/d
Perigee alt
539.1 km
Apogee alt
540.5 km
Semi-major
6,917.9 km
B*
1.6905e-4
RAAN
286.0914°
Arg perigee
82.9545°
Mean anomaly
277.1567°
Rev number
22,252

§ Raw data

STARLINK-39881 52625U 22052AD  26145.10145345  .00002403  00000+0  16905-3 0  99942 52625  53.2121 286.0914 0001053  82.9545 277.1567 15.08823822222525

JSON: /api/v1/satellites/52625 · /tle

For live sub-satellite position, see the globe view (requires WebGL).

§ Visibility from observer

Set your observer location to see the next 7 days of passes ≥ 10°. The values pass through the URL so the page stays shareable.

No JS? Fill the form by hand. The geolocation button needs JavaScript.